Weather History for Simferopol, Ukraine

Change the Weather History Date:

Wednesday, February 13, 2013

  Actual Average Record
Temperature  
Mean Temperature 41 °F -  
Max Temperature 52 °F - - ()
Min Temperature 30 °F - - ()
Degree Days  
Heating Degree Days 24    
Moisture  
Dew Point 35 °F    
Average Humidity 90    
Maximum Humidity 100    
Minimum Humidity 41    
Precipitation  
Precipitation 0.00 in - - ()
Sea Level Pressure  
Sea Level Pressure 30.22 in    
Wind  
Wind Speed 6 mph ()    
Max Wind Speed 11 mph    
Max Gust Speed -    
Visibility 2.0 miles    
Events Fog    
T = Trace of Precipitation, MM = Missing Value Source: Averaged Metar Reports

Daily Weather History Graph

Daily Weather History Graph

Search for Another Location

Airport:

Trip Planner

Search our weather history database for the weather conditions in past years. The results will help you decide how hot, cold, wet, or windy it might be!

Date:

Astronomy

Feb. 13, 2013 Rise Set
Actual Time 6:48 AM EET 5:09 PM EET
Civil Twilight 6:17 AM EET 5:39 PM EET
Nautical Twilight 5:43 AM EET 6:13 PM EET
Astronomical Twilight 5:09 AM EET 6:48 PM EET
Moon 7:55 AM EET (2/13) 9:03 PM EET (2/13)
Length of Visible Light 11h 21m
Length of Day
10h 21m
Waxing Crescent, 11% of the Moon is Illuminated
Feb 13
Waxing Crescent
Feb 17
First Quarter
Feb 25
Full
Mar 4
Last Quarter
Mar 11
New

Hourly Weather History & Observations

Time (EET) Temp. Windchill Dew Point Humidity Pressure Visibility Wind Dir Wind Speed Gust Speed Precip Events Conditions
12:00 AM 37.4 °F 33.9 °F 37.4 °F 100% 30.21 in 0.2 mi East 4.5 mph - N/A   Partly Cloudy
12:30 AM 35.6 °F 31.8 °F 35.6 °F 100% 30.21 in 0.3 mi ENE 4.5 mph - N/A   Partly Cloudy
1:00 AM 35.6 °F 31.8 °F 35.6 °F 100% 30.21 in 1.2 mi ENE 4.5 mph - N/A Fog Patches of Fog
1:04 AM 35.6 °F 31.8 °F 35.6 °F 100% 30.21 in 0.2 mi NE 4.5 mph - N/A   Partly Cloudy
1:18 AM 35.6 °F 31.8 °F 35.6 °F 100% 30.21 in 1.6 mi ENE 4.5 mph - N/A Fog Patches of Fog
1:30 AM 33.8 °F 29.7 °F 32.0 °F 93% 30.21 in - NE 4.5 mph - N/A   Scattered Clouds
2:00 AM 33 °F - 32 °F 96% 30.26 in 3 mi NE 6.7 mph - -   Mist
2:00 AM 33.8 °F 27.9 °F 32.0 °F 93% 30.21 in - NE 6.7 mph - N/A   Partly Cloudy
2:10 AM 33.8 °F 27.9 °F 32.0 °F 93% 30.21 in 1.8 mi NE 6.7 mph - N/A   Partly Cloudy
2:21 AM 33.8 °F 27.9 °F 32.0 °F 93% 30.21 in - NE 6.7 mph - N/A   Partly Cloudy
2:30 AM 33.8 °F 27.9 °F 33.8 °F 100% 30.21 in - NE 6.7 mph - N/A   Partly Cloudy
2:47 AM 33.8 °F 26.5 °F 33.8 °F 100% 30.21 in 1.8 mi NE 8.9 mph - N/A   Partly Cloudy
3:00 AM 33.8 °F 26.5 °F 33.8 °F 100% 30.21 in 1.4 mi NE 8.9 mph - N/A   Partly Cloudy
3:02 AM 33.8 °F 27.9 °F 33.8 °F 100% 30.21 in - NE 6.7 mph - N/A   Partly Cloudy
3:14 AM 33.8 °F 26.5 °F 33.8 °F 100% 30.21 in 0.2 mi NE 8.9 mph - N/A   Partly Cloudy
3:15 AM 33.8 °F 26.5 °F 33.8 °F 100% 30.21 in 0.1 mi NE 8.9 mph - N/A   Partly Cloudy
3:25 AM 33.8 °F 26.5 °F 33.8 °F 100% 30.21 in 0.5 mi NE 8.9 mph - N/A   Partly Cloudy
3:30 AM 33.8 °F 26.5 °F 33.8 °F 100% 30.21 in 1.1 mi NE 8.9 mph - N/A Fog Patches of Fog
3:35 AM 33.8 °F 26.5 °F 33.8 °F 100% 30.21 in 0.5 mi NE 8.9 mph - N/A   Partly Cloudy
3:36 AM 33.8 °F 26.5 °F 33.8 °F 100% 30.21 in 0.4 mi NE 8.9 mph - N/A   Partly Cloudy
3:46 AM 33.8 °F 26.5 °F 33.8 °F 100% 30.21 in 0.2 mi NE 8.9 mph - N/A   Unknown
3:50 AM 33.8 °F 26.5 °F 33.8 °F 100% 30.21 in 0.1 mi NE 8.9 mph - N/A   Unknown
4:00 AM 33.8 °F 26.5 °F 33.8 °F 100% 30.21 in 0.1 mi NE 8.9 mph - N/A Fog Fog
4:02 AM 33.8 °F 26.5 °F 33.8 °F 100% 30.21 in 0.1 mi NE 8.9 mph - N/A Fog Fog
4:16 AM 33.8 °F 26.5 °F 33.8 °F 100% 30.21 in 0.0 mi NE 8.9 mph - N/A Fog Fog
4:24 AM 33.8 °F 26.5 °F 33.8 °F 100% 30.21 in 0.0 mi NE 8.9 mph - N/A Fog Fog
4:30 AM 33.8 °F 26.5 °F 33.8 °F 100% 30.21 in 0.0 mi NE 8.9 mph - N/A Fog Fog
4:38 AM 33.8 °F 26.5 °F 33.8 °F 100% 30.21 in 0.0 mi ENE 8.9 mph - N/A Fog Fog
5:00 AM 35 °F - 35 °F 99% 30.27 in 0 mi ENE 8.9 mph - - Fog Heavy Fog
5:00 AM 35.6 °F 28.7 °F 35.6 °F 100% 30.21 in 0.0 mi NE 8.9 mph - N/A Fog Fog
5:16 AM 35.6 °F 28.7 °F 35.6 °F 100% 30.21 in 0.0 mi NE 8.9 mph - N/A Fog Fog
5:30 AM 35.6 °F 28.7 °F 35.6 °F 100% 30.21 in 0.0 mi ENE 8.9 mph - N/A Fog Fog
6:00 AM 33.8 °F 26.5 °F 33.8 °F 100% 30.21 in 0.0 mi ENE 8.9 mph - N/A Fog Fog
6:11 AM 33.8 °F 26.5 °F 33.8 °F 100% 30.21 in 0.1 mi ENE 8.9 mph - N/A Fog Fog
6:28 AM 32.0 °F 25.7 °F 32.0 °F 100% 30.21 in 0.1 mi ENE 6.7 mph - N/A Fog Light Freezing Fog
6:30 AM 32.0 °F 25.7 °F 32.0 °F 100% 30.21 in 0.1 mi ENE 6.7 mph - N/A Fog Light Freezing Fog
6:34 AM 32.0 °F 25.7 °F 32.0 °F 100% 30.21 in 0.1 mi ENE 6.7 mph - N/A Fog Light Freezing Fog
6:55 AM 32.0 °F - 32.0 °F 100% 30.21 in 0.1 mi Calm Calm - N/A Fog Light Freezing Fog
7:00 AM 32.0 °F - 32.0 °F 100% 30.21 in 0.1 mi ENE 2.2 mph - N/A Fog Light Freezing Fog
7:17 AM 32.0 °F 27.6 °F 32.0 °F 100% 30.24 in 0.1 mi East 4.5 mph - N/A Fog Light Freezing Fog
7:23 AM 32.0 °F 27.6 °F 32.0 °F 100% 30.24 in 0.2 mi East 4.5 mph - N/A Fog Light Freezing Fog
7:30 AM 30.2 °F 25.5 °F 30.2 °F 100% 30.24 in 0.2 mi ENE 4.5 mph - N/A Fog Light Freezing Fog
7:42 AM 32.0 °F 27.6 °F 32.0 °F 100% 30.24 in 0.2 mi ENE 4.5 mph - N/A Fog Light Freezing Fog
8:00 AM 32 °F - 32 °F 99% 30.27 in 1 mi East 6.7 mph - - Fog Fog
8:00 AM 32.0 °F 25.7 °F 32.0 °F 100% 30.24 in 0.2 mi East 6.7 mph - N/A Fog Light Freezing Fog
8:16 AM 32.0 °F 27.6 °F 32.0 °F 100% 30.24 in 1.4 mi ENE 4.5 mph - N/A   Mist
8:27 AM 33.8 °F 29.7 °F 33.8 °F 100% 30.24 in - East 4.5 mph - N/A   Mist
8:30 AM 33.8 °F 29.7 °F 33.8 °F 100% 30.24 in - East 4.5 mph - N/A   Mist
9:00 AM 39.2 °F - 37.4 °F 93% 30.24 in 2.8 mi Calm Calm - N/A Fog Patches of Fog
9:30 AM 41.0 °F - 41.0 °F 100% 30.24 in - Calm Calm - N/A   Mist
9:48 AM 41.0 °F - 41.0 °F 100% 30.24 in 1.8 mi Calm Calm - N/A   Mist
10:00 AM 42.8 °F - 41.0 °F 93% 30.24 in 1.7 mi Calm Calm - N/A   Mist
10:30 AM 44.6 °F - 39.2 °F 81% 30.24 in 1.4 mi Calm Calm - N/A   Overcast
10:48 AM 44.6 °F - 39.2 °F 81% 30.24 in - Variable 2.2 mph - N/A   Overcast
10:50 AM 44.6 °F 42.3 °F 39.2 °F 81% 30.24 in 1.6 mi Variable 4.5 mph - N/A   Overcast
11:00 AM 47 °F - 39 °F 65% 30.27 in 6 mi NE 4.5 mph - -   Overcast
11:00 AM 46.4 °F 44.4 °F 39.2 °F 76% 30.24 in 6.2 mi NE 4.5 mph - N/A   Overcast
11:30 AM 46.4 °F 44.4 °F 37.4 °F 71% 30.24 in 3.1 mi NE 4.5 mph - N/A   Smoke
12:00 PM 48.2 °F - 39.2 °F 71% 30.21 in 6.2 mi Variable 2.2 mph - N/A   Overcast
12:30 PM 50.0 °F - 39.2 °F 66% 30.21 in 6.2 mi Calm Calm - N/A   Overcast
1:00 PM 50.0 °F - 37.4 °F 62% 30.21 in 6.2 mi Variable 4.5 mph - N/A   Overcast
1:30 PM 51.8 °F - 37.4 °F 58% 30.21 in 6.2 mi Variable 4.5 mph - N/A   Overcast
2:00 PM 52 °F - 35 °F 41% 30.22 in 6 mi NE 8.9 mph - -   Overcast
2:00 PM 51.8 °F - 35.6 °F 54% 30.21 in 6.2 mi NE 8.9 mph - N/A   Overcast
2:30 PM 51.8 °F - 35.6 °F 54% 30.21 in 6.2 mi NE 6.7 mph - N/A   Overcast
3:00 PM 50.0 °F - 33.8 °F 54% 30.21 in 6.2 mi NE 11.2 mph - N/A   Overcast
3:30 PM 50.0 °F - 33.8 °F 54% 30.21 in 6.2 mi NE 11.2 mph - N/A   Overcast
4:00 PM 48.2 °F - 35.6 °F 62% 30.21 in 6.2 mi NE 11.2 mph - N/A   Overcast
4:30 PM 46.4 °F 42.0 °F 35.6 °F 66% 30.21 in - NE 8.9 mph - N/A   Clear
5:00 PM 46 °F - 36 °F 60% 30.24 in 6 mi NE 11.2 mph - -   Overcast
5:00 PM 46.4 °F 41.2 °F 37.4 °F 71% 30.21 in - NE 11.2 mph - N/A   Clear
5:30 PM 42.8 °F 36.7 °F 37.4 °F 81% 30.21 in - NE 11.2 mph - N/A   Clear
6:00 PM 41.0 °F 34.4 °F 37.4 °F 87% 30.21 in - NE 11.2 mph - N/A   Clear
6:30 PM 39.2 °F 32.2 °F 37.4 °F 93% 30.21 in - NE 11.2 mph - N/A   Clear
7:00 PM 37.4 °F 30.9 °F 35.6 °F 93% 30.21 in - NE 8.9 mph - N/A   Clear
7:30 PM 35.6 °F 28.7 °F 33.8 °F 93% 30.21 in - NE 8.9 mph - N/A   Clear
8:00 PM 35 °F - 34 °F 94% 30.25 in 6 mi ENE 8.9 mph - -   Clear
8:00 PM 35.6 °F 28.7 °F 33.8 °F 93% 30.21 in - ENE 8.9 mph - N/A   Clear
8:30 PM 33.8 °F 26.5 °F 32.0 °F 93% 30.21 in - ENE 8.9 mph - N/A   Clear
9:00 PM 33.8 °F 27.9 °F 32.0 °F 93% 30.21 in - ENE 6.7 mph - N/A   Clear
9:30 PM 33.8 °F 27.9 °F 32.0 °F 93% 30.21 in - ENE 6.7 mph - N/A   Clear
10:00 PM 32.0 °F 24.3 °F 32.0 °F 100% 30.21 in - NE 8.9 mph - N/A   Clear
10:30 PM 32.0 °F - 32.0 °F 100% 30.21 in - Calm Calm - N/A   Clear
11:00 PM 33 °F - 31 °F 90% 30.26 in 6 mi NE 4.5 mph - -   Clear
11:00 PM 32.0 °F - 32.0 °F 100% 30.21 in - NE 2.2 mph - N/A   Clear
11:30 PM 32.0 °F 25.7 °F 30.2 °F 93% 30.21 in - ENE 6.7 mph - N/A   Clear